Starlink 32152

operational
NORAD ID: 60275 Int'l Des: 2024-131 Owner: SPXS Country: US Constellation: starlink
LEOCIRCULAR

关于 Starlink 32152

正在加载描述...

实时位置

正在加载3D地球...

即将过境

高度历史

Altitude vs Time

uPlot chart will show altitude changes over time

两行轨道根数

1 60275U 24131W 25305.22755394 .00002886 00000-0 10957-3 0 9992
2 60275 53.1609 288.8981 0001459 88.5571 271.5597 15.30189904 71951
Epoch: Nov 1, 2025 • Age: 33 hours

当前状态

高度 487.7 km
速度 7.62 km/s
星下点 -36.53°S, 5.6°W
发射日期 Jul 27, 2024
运行时间 1.2 years
类型 internet

技术详情

分类 Payload
质量 730.00 kg
干质量 700.00 kg
总质量 730.00 kg
长度 0.30 m
直径 4.10 m
跨度 29.00 m
形状 Box + pan
制造商 SPXS
平台类型 Starlink V2M
阶段状态 In Orbit
所有者/国家 SPXS/US

大型星座

Loading constellations...